Terminal Aerodrome Forecast
Issued by NWS

Home | Current Version | Previous Version | Text Only | Print | Product List | Glossary On
Versions: 1 2 3 4 5 6 7 8 9 10 11 12 13 14 15 16 17 18 19 20 21 22 23 24 25 26
000
FTUS43 KSGF 202159 AAA
TAFJLN
TAF AMD
KJLN 202159Z 2022/2118 16014G24KT P6SM BKN250 WS020/18040KT
     FM211600 18020G28KT P6SM BKN040 WS020/19030KT=

USA.gov is the U.S. government's official web portal to all federal, state and local government web resources and services.